Regional Weather Roundup
Issued by NWS Cleveland, OH

Home | Current Version | Previous Version | Graphics & Text | Print | Product List | Glossary On
Versions: 1 2 3 4 5 6 7 8 9 10 11 12 13 14 15 16 17 18 19 20 21 22 23 24 25 26 27 28 29 30 31 32 33 34 35 36 37 38 39 40 41 42 43 44 45 46 47 48 49 50
000
ASUS41 KCLE 220600
RWRCLE
OHIO REGIONAL WEATHER ROUNDUP
NATIONAL WEATHER SERVICE WILMINGTON, OH
200 AM EDT TUE JUL 22 2014

NOTE: "FAIR" INDICATES FEW OR NO CLOUDS BELOW 12,000 FEET WITH NO
SIGNIFICANT WEATHER AND/OR OBSTRUCTIONS TO VISIBILITY.

OHZ001>008-015>018-024>027-034-035-043-044-220700-
   NORTHWEST OHIO

CITY           SKY/WX    TMP DP  RH WIND       PRES   REMARKS
DEFIANCE       CLEAR     66  62  87 CALM      30.10F
FINDLAY        CLEAR     66  63  90 SE5       30.11S
TOLEDO EXPRESS CLEAR     64  59  83 CALM      30.11S
TOLEDO METCALF CLEAR     69  59  70 CALM      30.11F
LIMA           CLEAR     70  64  81 E3        30.12S
$$

OHZ009>014-019>023-028>033-038-089-220700-
   NORTHEAST OHIO

CITY           SKY/WX    TMP DP  RH WIND       PRES   REMARKS
CLE-HOPKINS    CLEAR     66  58  75 SE3       30.14F
CLE-LAKEFRONT  CLEAR     71  58  63 SE7       30.10F
CUY CO. ARPT   NOT AVBL
LORAIN-ELYRIA  CLEAR     69  59  70 CALM      30.13F
ASHTABULA        N/A     61  59  93 CALM      30.14F FOG
AKRON-CANTON   PTCLDY    68  61  78 NE5       30.14F
WOOSTER        NOT AVBL
MANSFIELD      CLEAR     68  59  73 SE7       30.14F
YOUNGSTOWN     PTCLDY    69  65  86 NE5       30.14F
$$

OHZ042-051>053-060>062-070>072-077>081-220700-
  SOUTHWEST OHIO

CITY           SKY/WX    TMP DP  RH WIND       PRES   REMARKS
CINC-COVINGTON CLEAR     75  66  73 CALM      30.11S
CINC-LUNKEN    CLEAR     68  68 100 CALM      30.10S FOG
HAMILTON       CLEAR     67  66  97 CALM      30.11S FOG
DAYTON         NOT AVBL
WRIGHT-PAT AFB CLEAR     67  65  91 NE2       30.11F
DAYTON GENERAL CLEAR     68  65  90 NE6       30.11S
WILMINGTON     CLEAR     66  64  93 NE3       30.12S FOG
$$

OHZ036-037-039>041-045>050-054>059-063>069-073>076-082>088-220700-
  CENTRAL AND SOUTHEAST OHIO

CITY           SKY/WX    TMP DP  RH WIND       PRES   REMARKS
COLUMBUS       CLEAR     73  67  81 CALM      30.10F
OSU AIRPORT    CLEAR     69  66  90 CALM      30.11S
BOLTON FIELD   NOT AVBL
RICKENBACK AFB NOT AVBL
NEWARK         PTCLDY    67  66  97 CALM      30.11F FOG
MARION         CLEAR     69  62  78 SE7       30.12F
LANCASTER      CLEAR     67  65  93 CALM      30.11F FOG
ZANESVILLE     CLEAR     69  67  93 CALM      30.12F FOG
NEW PHILLY     CLEAR     67  66  97 CALM      30.13F FOG
$$


USA.gov is the U.S. government's official web portal to all federal, state and local government web resources and services.